Weather WX

World > North America > United States > Ohio

Van Wert, Ohio Regional Weather

Lat: 40.86N, Lon: 84.58W
Wx Zone: OHZ024
Warning FLW WEATHER ALERT - (More Info. Click Here) Warning
Feedback

Van Wert, OH Regional Weather

Expires:201906170200;;187598
ASUS41 KCLE 170102
RWRCLE
OHIO REGIONAL WEATHER ROUNDUP
NATIONAL WEATHER SERVICE CLEVELAND, OH
900 PM EDT SUN JUN 16 2019

NOTE: "FAIR" INDICATES FEW OR NO CLOUDS BELOW 12,000 FEET WITH NO
SIGNIFICANT WEATHER AND/OR OBSTRUCTIONS TO VISIBILITY.


OHZ001>008-015>018-024>027-034-035-043-044-170200-
   NORTHWEST OHIO
  
CITY           SKY/WX    TMP DP  RH WIND       PRES   REMARKS
DEFIANCE       CLOUDY    66  62  87 NE6       29.87R                  
FINDLAY        CLOUDY    69  64  84 NE9       29.86S                  
TOLEDO EXPRESS CLOUDY    63  59  87 NE9       29.88S FOG              
TOLEDO EXEC    CLOUDY    60  59  96 NE14      29.89F                  
LIMA           MOCLDY    72  67  84 NE8       29.86R                  
$$


SKY/WX - Weather  TMP - Temperature  DP - Dew Point  RH - Relative Humidity
WIND - Wind Direction/Speed PRES - Barometric Pressure VSB - Visibility
WCI - Wind Chill Index E13G22 Wind - East Wind 13 mph/Gusts of 22 mph